STARLINK-1073

decayed
NORAD ID: 44914 Int'l Des: 2020-001 Owner: SPXS Country: US Constellation: starlink
LEOCIRCULAR
グループ

STARLINK-1073について

説明を読み込み中...

高度履歴

Altitude vs Time

uPlot chart will show altitude changes over time

軌道要素

1 44914U 20001A 25112.42657796 .15995088 12617-4 21182-3 0 9995
2 44914 53.0208 279.7883 0008309 274.0092 183.1410 16.48760180292383
Epoch: Apr 22, 2025 • Age: 3512 hours

現在のステータス

Position data unavailable
打ち上げ日 Jan 7, 2020
運用期間 5.6 years
落下予定日 Apr 22, 2025
タイプ internet

技術仕様

分類 Payload
質量 260.00 kg
乾燥質量 248.00 kg
総質量 260.00 kg
長さ 0.20 m
直径 2.80 m
スパン 9.00 m
形状 Box + pan
製造者 SPXS
バスタイプ Starlink
フェーズステータス Unknown Transfer Status
所有者/国 SPXS/US

大規模コンステレーション

Loading constellations...